User: anonymous   Login
Location: Luz Observatory
(34.5000°N, 117.2833°W)
Time: 15:47:37
(UTC-07:00)
Language:

Okean 3 Rocket - Orbit

View from above orbital plane
View from above orbital plane
View from above satellite
View from above satellite

Ground track
Ground track

The orbit data is extracted from the following two-line orbital elements,

1 21398U 91039B   17206.07610000 +.00000079 +00000-0 +74086-5 0  9991
2 21398 082.5221 190.9180 0022855 060.7384 006.7779 14.79669392388475
Epoch (UTC): 25 July 2017 01:49:35
Eccentricity: 0.0022855
inclination: 82.5221°
perigee height: 614 km
apogee height: 646 km
right ascension of ascending node: 190.9180°
argument of perigee: 60.7384°
revolutions per day: 14.79669392
mean anomaly at epoch: 6.7779°
orbit number at epoch: 38847

The dashed part of the orbit path shows where the satellite is in the earth's shadow,  

DLR